Regional Weather Roundup
Issued by NWS

Home | Current Version | Previous Version | Graphics & Text | Print | Product List | Glossary Off
Versions: 1 2 3 4 5 6 7 8 9 10 11 12 13 14 15 16 17 18 19 20 21 22 23 24 25 26 27 28 29 30 31 32 33 34 35 36 37 38 39 40 41 42 43 44 45 46 47 48 49 50

960
ASUS43 KDMX 030201
RWRIA

WEATHER ROUNDUP FOR IOWA
NATIONAL WEATHER SERVICE DES MOINES IA
800 PM CST FRI DEC 02 2016

NOTE: "FAIR" INDICATES FEW OR NO CLOUDS BELOW 12,000 FEET WITH NO
SIGNIFICANT WEATHER AND/OR OBSTRUCTIONS TO VISIBILITY.

* - THESE STATIONS ARE NOT NWS STATIONS...THUS NOT UNDER NWS
QUALITY CONTROL.  THEY ALSO DO NOT REPORT WEATHER SUCH
AS PRECIPITATION OR FOG.

IAZ001>003-012>014-020>022-031>034-043>046-030300-
   NORTHWEST IOWA

CITY           SKY/WX    TMP DP  RH WIND       PRES   REMARKS
CARROLL *      CLOUDY    34  34 100 CALM      30.33S
CHEROKEE *     CLOUDY    33  31  93 NW5       30.32S WCI  28
DENISON *      CLOUDY    34  32  93 CALM      30.31R
LE MARS *      CLOUDY    34  28  80 N5        30.33S WCI  30
ORANGE CITY *  CLOUDY    32  28  86 CALM      30.30F
SHELDON *      CLOUDY    32  28  86 W5        30.29F WCI  27
SIOUX CITY     CLOUDY    35  32  88 CALM      30.34R
SPENCER        CLOUDY    32  27  81 W13       30.31S WCI  22
STORM LAKE *   CLOUDY    32  28  86 CALM      30.31S
$$

IAZ055>058-069>071-079>083-090>094-030300-
   SOUTHWEST IOWA

CITY           SKY/WX    TMP DP  RH WIND       PRES   REMARKS
ATLANTIC *     CLOUDY    36  30  80 W3        30.33S
AUDUBON *      CLOUDY    34  30  86 CALM      30.33S
CLARINDA *       N/A     30  28  93 N5        30.36S WCI  25
COUNCIL BLFS * CLOUDY    34  28  80 CALM      30.34R
CRESTON *        N/A     32  28  86 NW3       30.34S
HARLAN  *      CLOUDY    36  32  87 NW6       30.36S WCI  31
LAMONI         CLEAR     32  27  81 N6        30.33R WCI  26
RED OAK *      MOCLDY    28  27  93 CALM      30.34S
SHENANDOAH *   PTCLDY    30  28  93 NE6       30.35S WCI  24
$$

IAZ047>049-059>061-072>074-084-030300-
   CENTRAL IOWA

CITY           SKY/WX    TMP DP  RH WIND       PRES   REMARKS
AMES           CLOUDY    35  28  75 N6        30.34R WCI  30
ANKENY *       CLOUDY    36  36 100 CALM      30.36R
BOONE *        CLOUDY    34  28  80 NE3       30.32S
CHARITON *       N/A     36  32  87 NW6       30.33S WCI  31
DES MOINES     CLOUDY    38  33  82 CALM      30.34S
GRINNELL*      CLOUDY    34  30  83 CALM      30.34R
KNOXVILLE *    CLOUDY    37  32  81 N3        30.33R
MARSHALLTOWN   CLOUDY    33  29  85 CALM      30.33R
NEWTON *       CLOUDY    36  30  80 N5        30.34R WCI  32
PELLA *        CLOUDY    36  32  84 CALM      30.35R
PERRY *        CLOUDY    35  35  99 CALM      30.34R
$$

IAZ004>006-015-016-023>025-035-036-030300-
   NORTH CENTRAL IOWA

CITY           SKY/WX    TMP DP  RH WIND       PRES   REMARKS
ALGONA *       CLOUDY    32  27  80 CALM      30.31F
CLARION *      CLOUDY    32  27  80 N5        30.33R WCI  27
ESTHERVILLE    CLOUDY    31  26  82 W6        30.30R WCI  25
FORT DODGE *   CLOUDY    32  23  69 CALM      30.34R
MASON CITY     CLOUDY    29  25  85 NW8       30.33R WCI  21
WEBSTER CITY * CLOUDY    32  30  93 NW3       30.32R
IOWA FALLS *   CLOUDY    33  27  79 NW9       30.34R WCI  25
$$

IAZ007>011-017>019-026>030-037>042-050>054-066-030300-
   NORTHEAST IOWA

CITY           SKY/WX    TMP DP  RH WIND       PRES   REMARKS
CEDAR RAPIDS   CLOUDY    32  27  81 NW6       30.33R WCI  26
CHARLES CITY * CLOUDY    30  25  80 NW8       30.32R WCI  23
CLINTON *      CLOUDY    33  27  78 W7        30.33R WCI  27
DECORAH *      CLOUDY    30  23  74 NW7       30.29S WCI  23
DUBUQUE        CLOUDY    31  23  72 W12       30.30R WCI  22
MONTICELLO *   CLOUDY    34  25  69 NW12      30.31S WCI  25
OELWEIN *      CLOUDY    30  25  80 N10       30.32R WCI  21
WATERLOO       CLOUDY    32  24  72 CALM      30.33R
$$

IAZ064-065-067-068-078-030300-
   EAST CENTRAL IOWA

CITY           SKY/WX    TMP DP  RH WIND       PRES   REMARKS
DAVENPORT      CLOUDY    33  26  75 NW10      30.33R WCI  25
IOWA CITY      CLOUDY    36  26  67 NW5       30.36R WCI  32
MUSCATINE *    CLOUDY    36  28  75 N6        30.36R WCI  31
QUAD CITIES    CLOUDY    36  25  64 NW8       30.33R WCI  30
$$

IAZ062-063-075>077-085>089-095>099-030300-
   SOUTHEAST IOWA

CITY           SKY/WX    TMP DP  RH WIND       PRES   REMARKS
BURLINGTON     CLOUDY    38  30  73 N6        30.34R WCI  33
FAIRFIELD *    CLOUDY    37  30  75 CALM      30.34R
FORT MADISON * CLOUDY    37  32  81 CALM      30.35S
KEOKUK *       CLOUDY    39  32  75 CALM      30.33S
OSKALOOSA *    CLOUDY    36  31  82 N5        30.35R WCI  32
CENTERVILLE *  MOCLDY    36  32  87 CALM      30.34S
OTTUMWA        CLOUDY    38  30  73 NE3       30.34R
WASHINGTON *   CLOUDY    36  30  80 N5        30.36R WCI  32
$$

ABBREVIATIONS USED IN REMARKS
   TC - TEMPERATURES IN CELSIUS
  WCI - WIND CHILL INDEX
   HX - HEAT INDEX
  VSB - VISIBILITY
$$





USA.gov is the U.S. government's official web portal to all federal, state and local government web resources and services.